STARLINK-4763, 53805

Orbit data source: Space-Track

STARLINK-4763, 53805 is a payload satellite owned by SpaceX/Seattle (US) in LEO that was launched on Sun, 11 Sep 2022 UTC via an FALCON 9 launch vehicle from the Air Force Eastern Test Range (AFETR). Payload-class satellites include a variety of spacecraft equipped with specific instruments for various scientific and technological missions. These include communications satellites like Starlink; space stations such as the ISS; scientific satellites like the Hubble; Earth observation satellites from companies like Planet Labs, Umbra, and HawkEye 360; GPS; miniature CubeSats for education and research; and military/defense satellites.

Loading next visibility...
Identifier
53805, 2022-111AJ
Orbit
LEO
Country
Flag of USUS
Related business
Manufacturer
SpaceX/Seattle
Mission
Operational Commercial Communications
Bus & Motor
STARLINK, Unknown motor
Mass
305 kg wet, ~290 kg dry
Launch date (UTC)
2022-09-11 (3 years ago)
Launch vehicle
FALCON 9
Launch site
Air Force Eastern Test Range (AFETR)
Object type
Payload
Rocket body
Debris
Shape & HBR
Box + 1 Pan, 4.4 m
Radar Cross Section
13.562 m², Large (>1 m²)

Expand to show TLE details & history
Last TLE update: 2 days ago

TLE from 2 days ago
0 STARLINK-4763
1 53805U 22111AJ  25260.13263313  .00000390  00000-0  42576-4 0  9995
2 53805  53.2171 308.3806 0001032  79.5076 280.6032 15.08837968167820
Epoch: 2025-09-17T03:10Z
TLE epoch observation values (Epoch: 2025-09-17T03:10:59.502Z)
Latitude
-0.00005°
Longitude
-95.68033°
Altitude
540.516 km
Speed
7.593 km/s
True Right ascension
20h 33m 31s
True Declination
0° 00' 00"
Sunlit
Object was in full shadow at epoch
Visualization orbit readout
Latitude
Unknown
Longitude
Unknown
Altitude
Unknown
Speed
Unknown
Apparent Right ascension
Unknown
Apparent Declination
Unknown
Sunlit
N/A
Visualization observer readout
Local Sidereal Time
21:19:39
Azimuth
Unknown
Elevation
Unknown
Doppler factor
Unknown
Orbital elements
Apogee altitude
540.709 km
Perigee altitude
539.281 km
Semi-major axis
6,918.132 km
Eccentricity
0.0001
Inclination
53.2171°
RAAN
308.3806°
Arg. of periapsis
79.5076°
True anomaly
280.59158°
Mean anomaly
280.6032°
Eccentric anomaly
280.59739°
Mean motion
3.7719 °/min
Orbital period
95.44 mins
BSTAR
0.000042576
Loading maneuver chart data...
Computing Atmospheric mass density...
Loading historical data...
Loading historical data...
Loading historical data...
Loading historical data...
Loading historical data...
Loading historical data...
Loading historical data...

Documentation

Showing up to 5 results
|